{"data":{"norad_id":59734,"intl_designator":"2024-090E","name":"STARLINK-31849","alt_names":[],"object_type":"PAYLOAD","status":"ACTIVE","operator":null,"country":"US","launch_date":"2024-05-13","launch_site_code":"AFETR","launch_vehicle":null,"mission":null,"orbit_class":"UNKNOWN","rcs_meters":null,"size_class":null,"mass_kg":null,"dimensions":null,"purposes":["comms"],"wikipedia_slug":null,"has_3d_model":false,"image_url":null,"decayed_at":null,"tle_current":{"epoch":"2026-05-25T03:37:59.333088Z","epoch_age_seconds":55930,"freshness":"FRESH","line1":"1 59734U 24090E   26145.15138117  .00000327  00000+0  21412-4 0  9993","line2":"2 59734  43.0030 104.7862 0001265 259.6494 100.4215 15.27576269115214","mean_motion":15.27576269,"eccentricity":0.0001265,"inclination_deg":43.003,"raan_deg":104.7862,"arg_perigee_deg":259.6494,"mean_anomaly_deg":100.4215,"bstar":2.1412e-5,"rev_number":11521,"period_min":94.266978953704,"perigee_km":482.19232656421,"apogee_km":483.92820947302,"semimajor_km":6861.1972680186,"source":"CELESTRAK","updated_at":"2026-05-25T13:38:19.051009Z"}}}